Wetterdaten: Dienstag, 31.03.2015
Datum Zeit Auen-Temp. Temp gefhlt Luftfeuchte Luftdruck Regen Wind Richtung Richtung Taupunkt Windben
31.03.2015 00:00 5,2 C 4,8 C 68 % 1014,2 hPa 0,0 mm 6,3 km/h (2 Bft) W 270 -0,2 C 16,3 km/h (3 Bft)
31.03.2015 00:05 5,2 C 4,8 C 68 % 1014,1 hPa 0,0 mm 6,1 km/h (2 Bft) W 270 -0,2 C 4,8 km/h (1 Bft)
31.03.2015 00:10 5,2 C 4,9 C 67 % 1014,1 hPa 0,0 mm 7,9 km/h (2 Bft) NW 315 -0,4 C 12,7 km/h (3 Bft)
31.03.2015 00:15 5,2 C 4,8 C 67 % 1014,1 hPa 0,0 mm 7,7 km/h (2 Bft) W 270 -0,4 C 7,1 km/h (2 Bft)
31.03.2015 00:20 5,3 C 4,9 C 67 % 1014,1 hPa 0,0 mm 8,0 km/h (2 Bft) W-NW 292 -0,3 C 23,0 km/h (4 Bft)
31.03.2015 00:25 5,5 C 4,9 C 67 % 1013,8 hPa 0,0 mm 10,0 km/h (2 Bft) NW 315 -0,1 C 9,7 km/h (2 Bft)
31.03.2015 00:30 5,4 C 4,8 C 67 % 1013,8 hPa 0,0 mm 10,8 km/h (2 Bft) W-NW 292 -0,2 C 26,1 km/h (4 Bft)
31.03.2015 00:35 5,4 C 4,8 C 67 % 1013,8 hPa 0,0 mm 9,5 km/h (2 Bft) W 270 -0,2 C 11,3 km/h (2 Bft)
31.03.2015 00:40 5,4 C 4,6 C 67 % 1013,8 hPa 0,0 mm 9,5 km/h (2 Bft) W-SW 247 -0,2 C 5,1 km/h (1 Bft)
31.03.2015 00:45 5,4 C 4,9 C 68 % 1013,5 hPa 0,0 mm 8,4 km/h (2 Bft) SW 225 -0,0 C 9,8 km/h (2 Bft)
31.03.2015 00:50 5,3 C 4,7 C 68 % 1013,5 hPa 0,0 mm 7,1 km/h (2 Bft) W 270 -0,1 C 9,3 km/h (2 Bft)
31.03.2015 00:55 5,2 C 4,7 C 69 % 1013,5 hPa 0,0 mm 6,8 km/h (2 Bft) W-SW 247 -0,0 C 6,1 km/h (2 Bft)
31.03.2015 01:00 5,2 C 4,8 C 69 % 1013,5 hPa 0,0 mm 6,3 km/h (2 Bft) W 270 -0,0 C 4,8 km/h (1 Bft)
31.03.2015 01:05 5,2 C 4,8 C 69 % 1013,1 hPa 0,0 mm 5,8 km/h (2 Bft) SW 225 -0,0 C 6,8 km/h (2 Bft)
31.03.2015 01:10 5,2 C 4,7 C 69 % 1013,1 hPa 0,0 mm 6,0 km/h (2 Bft) W-SW 247 -0,0 C 7,6 km/h (2 Bft)
31.03.2015 01:15 5,3 C 4,7 C 69 % 1013,1 hPa 0,0 mm 6,4 km/h (2 Bft) W-NW 292 0,1 C 10,0 km/h (2 Bft)
31.03.2015 01:20 5,3 C 4,7 C 69 % 1013,1 hPa 0,0 mm 6,9 km/h (2 Bft) W-NW 292 0,1 C 5,5 km/h (1 Bft)
31.03.2015 01:25 5,3 C 4,6 C 70 % 1012,6 hPa 0,0 mm 6,9 km/h (2 Bft) SW 225 0,3 C 10,8 km/h (2 Bft)
31.03.2015 01:30 5,2 C 4,4 C 71 % 1012,6 hPa 0,0 mm 6,8 km/h (2 Bft) O-NO 67 0,4 C 15,4 km/h (3 Bft)
31.03.2015 01:35 5,1 C 4,2 C 71 % 1012,6 hPa 0,0 mm 7,4 km/h (2 Bft) S 180 0,3 C 10,1 km/h (2 Bft)
31.03.2015 01:40 5,1 C 4,4 C 71 % 1012,6 hPa 0,0 mm 8,4 km/h (2 Bft) SW 225 0,3 C 11,9 km/h (2 Bft)
31.03.2015 01:45 5,1 C 4,2 C 70 % 1012,3 hPa 0,0 mm 7,6 km/h (2 Bft) W-SW 247 0,1 C 6,3 km/h (2 Bft)
31.03.2015 01:50 5,0 C 4,4 C 70 % 1012,3 hPa 0,0 mm 6,0 km/h (2 Bft) SW 225 -0,0 C 3,5 km/h (1 Bft)
31.03.2015 01:55 5,0 C 4,5 C 69 % 1012,3 hPa 0,0 mm 5,6 km/h (1 Bft) W-SW 247 -0,2 C 4,5 km/h (1 Bft)
31.03.2015 02:00 5,0 C 4,5 C 69 % 1012,3 hPa 0,0 mm 5,8 km/h (2 Bft) SW 225 -0,2 C 7,1 km/h (2 Bft)
31.03.2015 02:05 5,0 C 4,5 C 69 % 1012,1 hPa 0,0 mm 5,6 km/h (1 Bft) S-SW 202 -0,2 C 6,8 km/h (2 Bft)
31.03.2015 02:10 5,0 C 4,5 C 69 % 1012,1 hPa 0,0 mm 5,3 km/h (1 Bft) W-SW 247 -0,2 C 4,0 km/h (1 Bft)
31.03.2015 02:15 4,9 C 4,4 C 69 % 1012,1 hPa 0,0 mm 5,0 km/h (1 Bft) SW 225 -0,3 C 5,1 km/h (1 Bft)
31.03.2015 02:20 4,8 C 4,4 C 69 % 1012,1 hPa 0,0 mm 4,2 km/h (1 Bft) W-SW 247 -0,4 C 6,6 km/h (2 Bft)
31.03.2015 02:25 4,9 C 4,4 C 69 % 1011,8 hPa 0,0 mm 4,8 km/h (1 Bft) W 270 -0,3 C 9,0 km/h (2 Bft)
31.03.2015 02:30 4,8 C 4,1 C 70 % 1011,8 hPa 0,0 mm 5,6 km/h (1 Bft) S-SW 202 -0,2 C 6,6 km/h (2 Bft)
31.03.2015 02:35 4,8 C 4,0 C 71 % 1011,8 hPa 0,0 mm 6,1 km/h (2 Bft) W-SW 247 -0,0 C 10,9 km/h (2 Bft)
31.03.2015 02:40 4,6 C 3,9 C 72 % 1011,8 hPa 0,0 mm 5,0 km/h (1 Bft) W-SW 247 -0,0 C 2,7 km/h (1 Bft)
31.03.2015 02:45 4,5 C 3,9 C 72 % 1011,7 hPa 0,0 mm 4,2 km/h (1 Bft) S 180 -0,1 C 4,8 km/h (1 Bft)
31.03.2015 02:50 4,4 C 3,8 C 74 % 1011,7 hPa 0,0 mm 3,9 km/h (1 Bft) W-SW 247 0,2 C 3,4 km/h (1 Bft)
31.03.2015 02:55 4,2 C 3,6 C 74 % 1011,7 hPa 0,0 mm 3,9 km/h (1 Bft) SW 225 -0,0 C 3,7 km/h (1 Bft)
31.03.2015 03:00 4,1 C 3,6 C 75 % 1011,7 hPa 0,0 mm 3,2 km/h (1 Bft) SW 225 0,1 C 6,1 km/h (2 Bft)
31.03.2015 03:05 4,1 C 3,5 C 76 % 1010,9 hPa 0,0 mm 3,7 km/h (1 Bft) S 180 0,3 C 4,2 km/h (1 Bft)
31.03.2015 03:10 4,0 C 3,4 C 76 % 1010,9 hPa 0,0 mm 3,9 km/h (1 Bft) S 180 0,2 C 0,0 km/h (0 Bft)
31.03.2015 03:15 3,8 C 3,5 C 77 % 1010,9 hPa 0,0 mm 1,9 km/h (1 Bft) S-SW 202 0,1 C 0,0 km/h (0 Bft)
31.03.2015 03:20 3,8 C 3,5 C 79 % 1010,9 hPa 0,0 mm 0,5 km/h (0 Bft) W 270 0,5 C 3,1 km/h (1 Bft)
31.03.2015 03:25 3,8 C 3,5 C 79 % 1011,0 hPa 0,0 mm 0,8 km/h (0 Bft) W 270 0,5 C 0,0 km/h (0 Bft)
31.03.2015 03:30 3,9 C 3,6 C 79 % 1011,0 hPa 0,0 mm 2,3 km/h (1 Bft) W-SW 247 0,6 C 4,3 km/h (1 Bft)
31.03.2015 03:35 4,1 C 3,6 C 80 % 1011,0 hPa 0,0 mm 3,9 km/h (1 Bft) S 180 1,0 C 9,8 km/h (2 Bft)
31.03.2015 03:40 4,3 C 3,5 C 81 % 1011,0 hPa 0,0 mm 5,3 km/h (1 Bft) W-SW 247 1,3 C 5,1 km/h (1 Bft)
31.03.2015 03:45 4,5 C 3,7 C 81 % 1010,0 hPa 0,0 mm 5,5 km/h (1 Bft) W-NW 292 1,5 C 5,8 km/h (2 Bft)
31.03.2015 03:50 4,7 C 3,9 C 81 % 1010,0 hPa 0,0 mm 6,0 km/h (2 Bft) NW 315 1,7 C 10,5 km/h (2 Bft)
31.03.2015 03:53 4,8 C 4,0 C 81 % 1010,0 hPa 0,0 mm 5,8 km/h (2 Bft) W 270 1,8 C 10,1 km/h (2 Bft)
31.03.2015 03:58 5,2 C 4,5 C 81 % 1010,0 hPa 0,0 mm 6,0 km/h (2 Bft) W-NW 292 2,2 C 5,5 km/h (1 Bft)
31.03.2015 04:03 5,3 C 4,7 C 81 % 1009,5 hPa 0,0 mm 5,6 km/h (1 Bft) W-SW 247 2,3 C 1,9 km/h (1 Bft)
31.03.2015 04:08 5,6 C 5,0 C 81 % 1009,5 hPa 0,0 mm 5,3 km/h (1 Bft) W-NW 292 2,6 C 9,5 km/h (2 Bft)
31.03.2015 04:13 6,0 C 5,3 C 79 % 1009,5 hPa 0,0 mm 6,4 km/h (2 Bft) NW 315 2,6 C 7,1 km/h (2 Bft)
31.03.2015 04:18 6,2 C 5,5 C 78 % 1009,5 hPa 0,0 mm 7,2 km/h (2 Bft) NW 315 2,7 C 13,2 km/h (3 Bft)
31.03.2015 04:23 6,5 C 5,9 C 78 % 1009,1 hPa 0,0 mm 6,9 km/h (2 Bft) W-SW 247 2,9 C 9,5 km/h (2 Bft)
31.03.2015 04:28 6,6 C 6,0 C 77 % 1009,1 hPa 0,0 mm 7,4 km/h (2 Bft) W 270 2,9 C 5,0 km/h (1 Bft)
31.03.2015 04:33 6,7 C 6,1 C 77 % 1009,1 hPa 0,0 mm 6,3 km/h (2 Bft) W-SW 247 3,0 C 6,6 km/h (2 Bft)
31.03.2015 04:38 6,9 C 6,3 C 76 % 1009,1 hPa 0,0 mm 6,4 km/h (2 Bft) W 270 3,0 C 10,1 km/h (2 Bft)
31.03.2015 04:43 6,8 C 6,2 C 76 % 1008,3 hPa 0,0 mm 6,6 km/h (2 Bft) W 270 2,9 C 5,8 km/h (2 Bft)
31.03.2015 04:48 6,9 C 6,3 C 77 % 1008,3 hPa 0,0 mm 5,6 km/h (1 Bft) W 270 3,2 C 8,7 km/h (2 Bft)
31.03.2015 04:53 7,1 C 6,4 C 77 % 1008,3 hPa 0,0 mm 5,6 km/h (1 Bft) SW 225 3,3 C 4,2 km/h (1 Bft)
31.03.2015 04:58 7,4 C 6,6 C 76 % 1008,3 hPa 0,0 mm 7,6 km/h (2 Bft) W-SW 247 3,5 C 12,4 km/h (3 Bft)
31.03.2015 05:03 7,7 C 7,1 C 75 % 1007,6 hPa 0,0 mm 8,0 km/h (2 Bft) W-NW 292 3,6 C 11,9 km/h (2 Bft)
31.03.2015 05:08 8,1 C 7,4 C 74 % 1007,6 hPa 0,0 mm 8,0 km/h (2 Bft) W 270 3,8 C 8,5 km/h (2 Bft)
31.03.2015 05:13 8,2 C 7,6 C 74 % 1007,6 hPa 0,0 mm 7,9 km/h (2 Bft) S-SW 202 3,8 C 16,1 km/h (3 Bft)
31.03.2015 05:18 8,7 C 8,1 C 72 % 1007,6 hPa 0,0 mm 9,0 km/h (2 Bft) SW 225 3,9 C 20,8 km/h (4 Bft)
31.03.2015 05:23 8,9 C 8,2 C 72 % 1006,8 hPa 0,0 mm 10,0 km/h (2 Bft) SW 225 4,1 C 13,8 km/h (3 Bft)
31.03.2015 05:28 9,0 C 8,3 C 72 % 1006,8 hPa 0,0 mm 10,0 km/h (2 Bft) NW 315 4,2 C 7,4 km/h (2 Bft)
31.03.2015 05:33 9,1 C 8,5 C 72 % 1006,8 hPa 0,0 mm 8,9 km/h (2 Bft) W-SW 247 4,3 C 11,7 km/h (2 Bft)
31.03.2015 05:38 9,7 C 9,1 C 71 % 1006,8 hPa 0,0 mm 9,3 km/h (2 Bft) NW 315 4,7 C 15,0 km/h (3 Bft)
31.03.2015 05:43 10,0 C 9,5 C 69 % 1005,9 hPa 0,0 mm 10,8 km/h (2 Bft) W 270 4,6 C 20,3 km/h (4 Bft)
31.03.2015 05:48 10,1 C 9,6 C 68 % 1005,9 hPa 0,0 mm 11,6 km/h (2 Bft) W-SW 247 4,5 C 10,6 km/h (2 Bft)
31.03.2015 05:53 10,1 C 9,7 C 68 % 1005,9 hPa 0,0 mm 10,8 km/h (2 Bft) W-SW 247 4,5 C 12,4 km/h (3 Bft)
31.03.2015 05:58 10,5 C 10,0 C 67 % 1005,9 hPa 0,0 mm 10,1 km/h (2 Bft) S 180 4,6 C 17,1 km/h (3 Bft)
31.03.2015 06:03 10,6 C 10,1 C 67 % 1005,7 hPa 0,0 mm 10,8 km/h (2 Bft) W 270 4,7 C 13,8 km/h (3 Bft)
31.03.2015 06:08 10,9 C 10,4 C 66 % 1005,7 hPa 0,0 mm 13,2 km/h (3 Bft) NW 315 4,8 C 14,2 km/h (3 Bft)
31.03.2015 06:13 10,9 C 10,5 C 66 % 1005,7 hPa 0,0 mm 13,5 km/h (3 Bft) W-SW 247 4,8 C 12,1 km/h (2 Bft)
31.03.2015 06:18 11,0 C 10,6 C 66 % 1005,7 hPa 0,0 mm 11,9 km/h (2 Bft) W-SW 247 4,9 C 14,5 km/h (3 Bft)
31.03.2015 06:19 11,0 C 10,5 C 66 % 1005,7 hPa 0,0 mm 11,9 km/h (2 Bft) W-SW 247 4,9 C 14,5 km/h (3 Bft)
31.03.2015 06:20 11,0 C 10,5 C 66 % 1005,7 hPa 0,0 mm 11,9 km/h (2 Bft) W-SW 247 4,9 C 14,5 km/h (3 Bft)
31.03.2015 06:25 10,9 C 10,7 C 67 % 1005,2 hPa 0,0 mm 10,1 km/h (2 Bft) SW 225 5,0 C 13,2 km/h (3 Bft)
31.03.2015 06:30 11,1 C 10,7 C 66 % 1005,2 hPa 0,0 mm 10,8 km/h (2 Bft) W-NW 292 5,0 C 22,9 km/h (4 Bft)
31.03.2015 06:35 11,3 C 11,0 C 66 % 1005,2 hPa 0,0 mm 11,9 km/h (2 Bft) W 270 5,2 C 10,0 km/h (2 Bft)
31.03.2015 06:40 11,3 C 10,9 C 66 % 1005,2 hPa 0,0 mm 35,7 km/h (5 Bft) W 270 5,2 C 83,0 km/h (9 Bft)
31.03.2015 06:45 11,3 C 11,1 C 65 % 1005,1 hPa 0,0 mm 22,9 km/h (4 Bft) W-SW 247 5,0 C 27,4 km/h (4 Bft)
31.03.2015 06:50 11,6 C 11,3 C 65 % 1005,1 hPa 0,0 mm 30,6 km/h (5 Bft) W 270 5,2 C 18,5 km/h (3 Bft)
31.03.2015 06:55 11,5 C 11,1 C 65 % 1005,1 hPa 0,0 mm 29,8 km/h (5 Bft) W 270 5,2 C 41,4 km/h (6 Bft)
31.03.2015 07:00 11,6 C 11,2 C 64 % 1005,1 hPa 0,0 mm 28,6 km/h (4 Bft) NW 315 5,0 C 42,6 km/h (6 Bft)
31.03.2015 07:03 11,7 C 11,4 C 64 % 1004,8 hPa 0,0 mm 11,7 km/h (2 Bft) NW 315 5,1 C 15,8 km/h (3 Bft)
31.03.2015 07:05 11,7 C 11,3 C 64 % 1004,8 hPa 0,0 mm 27,0 km/h (4 Bft) NW 315 5,1 C 36,3 km/h (5 Bft)
31.03.2015 07:06 11,7 C 10,3 C 64 % 1004,8 hPa 0,0 mm 27,0 km/h (4 Bft) NW 315 5,1 C 36,3 km/h (5 Bft)
31.03.2015 07:10 12,0 C 11,5 C 63 % 1004,8 hPa 0,0 mm 29,6 km/h (5 Bft) W 270 5,2 C 91,1 km/h (10 Bft)
31.03.2015 07:15 12,0 C 11,5 C 62 % 1004,8 hPa 0,0 mm 31,8 km/h (5 Bft) SW 225 4,9 C 23,3 km/h (4 Bft)
31.03.2015 07:20 12,0 C 11,7 C 62 % 1004,8 hPa 0,0 mm 32,9 km/h (5 Bft) W-SW 247 4,9 C 32,6 km/h (5 Bft)
31.03.2015 07:25 12,0 C 11,6 C 61 % 1005,1 hPa 0,0 mm 29,2 km/h (5 Bft) SW 225 4,7 C 27,8 km/h (4 Bft)
31.03.2015 07:30 12,1 C 11,7 C 61 % 1005,1 hPa 0,0 mm 26,7 km/h (4 Bft) W 270 4,8 C 37,8 km/h (5 Bft)
31.03.2015 07:35 12,0 C 11,6 C 60 % 1005,1 hPa 0,0 mm 27,7 km/h (4 Bft) W-SW 247 4,5 C 32,2 km/h (5 Bft)
31.03.2015 07:40 12,3 C 12,0 C 59 % 1005,1 hPa 0,0 mm 26,7 km/h (4 Bft) W 270 4,5 C 32,6 km/h (5 Bft)
31.03.2015 07:45 12,3 C 11,8 C 59 % 1005,1 hPa 0,7 mm 28,3 km/h (4 Bft) W 270 4,5 C 47,0 km/h (6 Bft)
31.03.2015 07:50 12,4 C 12,1 C 59 % 1005,1 hPa 0,0 mm 29,3 km/h (5 Bft) W-NW 292 4,6 C 51,4 km/h (7 Bft)
31.03.2015 07:55 12,4 C 12,1 C 59 % 1005,1 hPa 0,0 mm 30,3 km/h (5 Bft) W 270 4,6 C 56,3 km/h (7 Bft)
31.03.2015 08:00 12,6 C 12,1 C 58 % 1005,1 hPa 0,0 mm 33,2 km/h (5 Bft) W-SW 247 4,6 C 68,1 km/h (8 Bft)
31.03.2015 08:05 12,6 C 12,1 C 58 % 1005,4 hPa 0,0 mm 36,0 km/h (5 Bft) W 270 4,6 C 105,9 km/h (11 Bft)
31.03.2015 08:10 12,7 C 12,3 C 57 % 1005,4 hPa 0,0 mm 41,8 km/h (6 Bft) N 360 4,4 C 91,1 km/h (10 Bft)
31.03.2015 08:15 12,7 C 12,4 C 57 % 1005,4 hPa 0,0 mm 42,2 km/h (6 Bft) W-SW 247 4,4 C 46,6 km/h (6 Bft)
31.03.2015 08:20 12,7 C 12,4 C 57 % 1005,4 hPa 0,0 mm 40,6 km/h (6 Bft) SW 225 4,4 C 107,3 km/h (11 Bft)
31.03.2015 08:25 12,7 C 12,4 C 57 % 1005,3 hPa 0,0 mm 37,3 km/h (5 Bft) W 270 4,4 C 30,4 km/h (5 Bft)
31.03.2015 08:30 12,7 C 12,4 C 57 % 1005,3 hPa 0,0 mm 35,7 km/h (5 Bft) W-SW 247 4,4 C 47,6 km/h (6 Bft)
31.03.2015 08:35 12,6 C 12,4 C 57 % 1005,3 hPa 0,0 mm 31,9 km/h (5 Bft) SW 225 4,3 C 24,0 km/h (4 Bft)
31.03.2015 08:40 12,7 C 12,5 C 56 % 1005,3 hPa 0,0 mm 32,2 km/h (5 Bft) W-SW 247 4,2 C 75,0 km/h (9 Bft)
31.03.2015 08:45 12,7 C 12,5 C 56 % 1004,4 hPa 0,0 mm 35,7 km/h (5 Bft) W-SW 247 4,2 C 27,7 km/h (4 Bft)
31.03.2015 08:50 12,6 C 12,4 C 56 % 1004,4 hPa 0,0 mm 35,7 km/h (5 Bft) W-SW 247 4,1 C 56,4 km/h (7 Bft)
31.03.2015 08:55 12,7 C 12,5 C 56 % 1004,4 hPa 0,0 mm 32,2 km/h (5 Bft) W 270 4,2 C 38,2 km/h (5 Bft)
31.03.2015 09:00 12,7 C 12,5 C 55 % 1004,4 hPa 0,0 mm 31,2 km/h (5 Bft) NW 315 3,9 C 37,5 km/h (5 Bft)
31.03.2015 09:05 12,7 C 12,4 C 55 % 1004,5 hPa 0,0 mm 30,9 km/h (5 Bft) W-SW 247 3,9 C 59,5 km/h (7 Bft)
31.03.2015 09:10 12,8 C 12,4 C 55 % 1004,5 hPa 0,0 mm 33,5 km/h (5 Bft) NW 315 4,0 C 62,2 km/h (8 Bft)
31.03.2015 09:15 12,9 C 12,6 C 55 % 1004,5 hPa 0,0 mm 36,4 km/h (5 Bft) NW 315 4,1 C 57,8 km/h (7 Bft)
31.03.2015 09:20 13,0 C 12,9 C 54 % 1004,5 hPa 0,0 mm 36,0 km/h (5 Bft) W 270 3,9 C 59,8 km/h (7 Bft)
31.03.2015 09:25 13,0 C 13,0 C 53 % 1004,4 hPa 0,0 mm 35,1 km/h (5 Bft) W-SW 247 3,6 C 43,9 km/h (6 Bft)
31.03.2015 09:30 13,1 C 13,2 C 53 % 1004,4 hPa 0,0 mm 40,6 km/h (6 Bft) SW 225 3,7 C 114,9 km/h (11 Bft)
31.03.2015 09:35 13,2 C 13,3 C 53 % 1004,4 hPa 0,0 mm 39,3 km/h (6 Bft) W 270 3,8 C 47,7 km/h (6 Bft)
31.03.2015 09:40 13,3 C 13,5 C 52 % 1004,4 hPa 0,0 mm 36,4 km/h (5 Bft) W 270 3,7 C 57,5 km/h (7 Bft)
31.03.2015 09:45 13,4 C 13,6 C 51 % 1003,4 hPa 0,0 mm 39,3 km/h (6 Bft) W 270 3,5 C 114,2 km/h (11 Bft)
31.03.2015 09:50 13,4 C 13,6 C 52 % 1003,4 hPa 0,0 mm 37,3 km/h (5 Bft) W-SW 247 3,7 C 33,8 km/h (5 Bft)
31.03.2015 09:55 13,4 C 13,6 C 51 % 1003,4 hPa 0,0 mm 36,4 km/h (5 Bft) S-SW 202 3,5 C 39,9 km/h (6 Bft)
31.03.2015 09:58 13,5 C 12,3 C 50 % 1003,4 hPa 0,0 mm 46,6 km/h (6 Bft) W-SW 247 3,3 C 61,8 km/h (7 Bft)
31.03.2015 10:03 13,6 C 13,8 C 50 % 1004,0 hPa 0,0 mm 47,4 km/h (6 Bft) W-SW 247 3,4 C 116,6 km/h (11 Bft)
31.03.2015 10:08 13,9 C 14,5 C 50 % 1004,0 hPa 0,0 mm 43,3 km/h (6 Bft) W-SW 247 3,7 C 47,4 km/h (6 Bft)
31.03.2015 10:13 14,0 C 15,0 C 49 % 1004,0 hPa 0,0 mm 44,4 km/h (6 Bft) SW 225 3,5 C 57,4 km/h (7 Bft)
31.03.2015 10:18 14,1 C 15,3 C 49 % 1004,0 hPa 0,0 mm 44,0 km/h (6 Bft) W-NW 292 3,6 C 55,2 km/h (7 Bft)
31.03.2015 10:23 14,3 C 15,5 C 49 % 1003,8 hPa 0,0 mm 44,0 km/h (6 Bft) W-SW 247 3,7 C 41,1 km/h (6 Bft)
31.03.2015 10:28 14,5 C 15,9 C 47 % 1003,8 hPa 0,0 mm 48,5 km/h (6 Bft) W-NW 292 3,3 C 66,6 km/h (8 Bft)
31.03.2015 10:33 14,6 C 16,3 C 47 % 1003,8 hPa 0,0 mm 47,0 km/h (6 Bft) W-NW 292 3,4 C 55,9 km/h (7 Bft)
31.03.2015 10:38 14,7 C 16,6 C 47 % 1003,8 hPa 0,0 mm 44,0 km/h (6 Bft) W-SW 247 3,5 C 21,5 km/h (4 Bft)
31.03.2015 10:43 14,9 C 17,2 C 47 % 1004,2 hPa 0,0 mm 39,6 km/h (6 Bft) W-SW 247 3,7 C 48,5 km/h (6 Bft)
31.03.2015 10:48 15,0 C 17,2 C 46 % 1004,2 hPa 0,0 mm 38,9 km/h (6 Bft) W 270 3,5 C 132,5 km/h (12 Bft)
31.03.2015 10:53 15,2 C 17,3 C 46 % 1004,2 hPa 0,0 mm 38,9 km/h (6 Bft) W-SW 247 3,7 C 49,6 km/h (6 Bft)
31.03.2015 10:58 15,3 C 17,4 C 44 % 1004,2 hPa 0,0 mm 50,3 km/h (7 Bft) W-SW 247 3,1 C 68,8 km/h (8 Bft)
31.03.2015 11:03 15,2 C 17,1 C 44 % 1004,8 hPa 0,0 mm 50,0 km/h (6 Bft) W 270 3,0 C 52,2 km/h (7 Bft)
31.03.2015 11:08 15,6 C 17,5 C 44 % 1004,8 hPa 0,0 mm 42,2 km/h (6 Bft) W-NW 292 3,4 C 27,0 km/h (4 Bft)
31.03.2015 11:13 15,9 C 18,4 C 44 % 1004,8 hPa 0,0 mm 39,6 km/h (6 Bft) W-NW 292 3,7 C 47,7 km/h (6 Bft)
31.03.2015 11:18 15,9 C 18,7 C 43 % 1004,8 hPa 0,0 mm 39,6 km/h (6 Bft) SW 225 3,3 C 41,1 km/h (6 Bft)
31.03.2015 11:23 16,1 C 18,9 C 42 % 1004,6 hPa 0,0 mm 44,8 km/h (6 Bft) SW 225 3,2 C 74,0 km/h (8 Bft)
31.03.2015 11:28 15,8 C 18,4 C 43 % 1004,6 hPa 0,0 mm 45,5 km/h (6 Bft) W 270 3,3 C 71,8 km/h (8 Bft)
31.03.2015 11:33 15,7 C 17,8 C 42 % 1004,6 hPa 0,0 mm 47,7 km/h (6 Bft) W 270 2,8 C 65,5 km/h (8 Bft)
31.03.2015 11:38 15,5 C 17,5 C 43 % 1004,6 hPa 0,0 mm 44,8 km/h (6 Bft) W-NW 292 3,0 C 51,1 km/h (7 Bft)
31.03.2015 11:43 15,6 C 17,3 C 44 % 1005,2 hPa 0,0 mm 48,1 km/h (6 Bft) W-NW 292 3,4 C 70,3 km/h (8 Bft)
31.03.2015 11:48 15,4 C 17,2 C 44 % 1005,2 hPa 0,0 mm 47,7 km/h (6 Bft) W-SW 247 3,2 C 44,4 km/h (6 Bft)
31.03.2015 11:53 15,1 C 16,8 C 45 % 1005,2 hPa 0,0 mm 47,4 km/h (6 Bft) S-SW 202 3,3 C 49,6 km/h (6 Bft)
31.03.2015 11:58 14,9 C 16,3 C 46 % 1005,2 hPa 0,0 mm 46,3 km/h (6 Bft) W-SW 247 3,4 C 98,5 km/h (10 Bft)
31.03.2015 12:03 15,0 C 16,0 C 46 % 1005,4 hPa 0,0 mm 51,4 km/h (7 Bft) W-NW 292 3,5 C 131,8 km/h (12 Bft)
31.03.2015 12:08 14,9 C 15,9 C 46 % 1005,4 hPa 0,0 mm 61,8 km/h (7 Bft) SW 225 3,4 C 122,9 km/h (12 Bft)
31.03.2015 12:13 14,9 C 16,0 C 46 % 1005,4 hPa 0,0 mm 57,4 km/h (7 Bft) W 270 3,4 C 34,1 km/h (5 Bft)
31.03.2015 12:18 14,9 C 16,0 C 47 % 1005,4 hPa 0,0 mm 50,7 km/h (7 Bft) W 270 3,7 C 37,0 km/h (5 Bft)
31.03.2015 12:23 14,8 C 16,1 C 48 % 1006,1 hPa 0,0 mm 44,4 km/h (6 Bft) W 270 3,9 C 67,7 km/h (8 Bft)
31.03.2015 12:28 14,3 C 15,6 C 49 % 1006,1 hPa 0,0 mm 42,9 km/h (6 Bft) W 270 3,7 C 63,7 km/h (8 Bft)
31.03.2015 12:33 14,3 C 15,1 C 49 % 1006,1 hPa 0,0 mm 47,7 km/h (6 Bft) W 270 3,7 C 75,1 km/h (9 Bft)
31.03.2015 12:38 14,3 C 15,0 C 50 % 1006,1 hPa 0,0 mm 45,2 km/h (6 Bft) W-NW 292 4,0 C 58,1 km/h (7 Bft)
31.03.2015 12:43 14,4 C 15,1 C 50 % 1005,9 hPa 0,0 mm 42,2 km/h (6 Bft) W-NW 292 4,1 C 52,9 km/h (7 Bft)
31.03.2015 12:48 14,3 C 15,3 C 49 % 1005,9 hPa 0,0 mm 48,5 km/h (6 Bft) W-SW 247 3,7 C 62,9 km/h (8 Bft)
31.03.2015 12:53 14,6 C 15,4 C 49 % 1005,9 hPa 0,0 mm 50,7 km/h (7 Bft) W 270 4,0 C 58,5 km/h (7 Bft)
31.03.2015 12:58 14,8 C 15,7 C 49 % 1005,9 hPa 0,0 mm 43,7 km/h (6 Bft) W 270 4,2 C 82,2 km/h (9 Bft)
31.03.2015 13:03 14,3 C 15,5 C 49 % 1006,0 hPa 0,0 mm 47,4 km/h (6 Bft) W-NW 292 3,7 C 66,6 km/h (8 Bft)
31.03.2015 13:08 14,3 C 15,0 C 50 % 1006,0 hPa 0,0 mm 53,3 km/h (7 Bft) W 270 4,0 C 84,4 km/h (9 Bft)
31.03.2015 13:13 14,3 C 14,9 C 50 % 1006,0 hPa 0,0 mm 51,1 km/h (7 Bft) W-SW 247 4,0 C 53,7 km/h (7 Bft)
31.03.2015 13:18 14,2 C 14,9 C 50 % 1006,0 hPa 0,0 mm 50,0 km/h (6 Bft) W 270 3,9 C 54,0 km/h (7 Bft)
31.03.2015 13:23 14,0 C 14,5 C 50 % 1005,9 hPa 0,0 mm 47,7 km/h (6 Bft) W-SW 247 3,7 C 54,8 km/h (7 Bft)
31.03.2015 13:28 14,0 C 14,4 C 49 % 1005,9 hPa 0,0 mm 52,6 km/h (7 Bft) S-SW 202 3,5 C 79,6 km/h (9 Bft)
31.03.2015 13:33 14,0 C 14,4 C 49 % 1005,9 hPa 0,0 mm 55,5 km/h (7 Bft) W 270 3,5 C 101,0 km/h (10 Bft)
31.03.2015 13:38 14,4 C 15,1 C 50 % 1005,9 hPa 0,0 mm 48,9 km/h (6 Bft) W-NW 292 4,1 C 40,7 km/h (6 Bft)
31.03.2015 13:43 14,4 C 15,3 C 49 % 1006,2 hPa 0,0 mm 48,1 km/h (6 Bft) W 270 3,8 C 55,9 km/h (7 Bft)
31.03.2015 13:48 14,4 C 15,3 C 49 % 1006,2 hPa 0,0 mm 48,5 km/h (6 Bft) W-NW 292 3,8 C 45,5 km/h (6 Bft)
31.03.2015 13:53 14,4 C 15,7 C 49 % 1006,2 hPa 0,0 mm 50,0 km/h (6 Bft) W-NW 292 3,8 C 62,6 km/h (8 Bft)
31.03.2015 13:58 14,4 C 15,4 C 49 % 1006,2 hPa 0,0 mm 50,7 km/h (7 Bft) NW 315 3,8 C 81,1 km/h (9 Bft)
31.03.2015 14:03 14,1 C 15,6 C 48 % 1007,2 hPa 0,0 mm 52,2 km/h (7 Bft) SW 225 3,3 C 69,2 km/h (8 Bft)
31.03.2015 14:08 14,4 C 15,5 C 49 % 1007,2 hPa 0,0 mm 48,9 km/h (6 Bft) W-NW 292 3,8 C 55,5 km/h (7 Bft)
31.03.2015 14:13 14,0 C 15,4 C 49 % 1007,2 hPa 0,0 mm 45,9 km/h (6 Bft) SW 225 3,5 C 55,2 km/h (7 Bft)
31.03.2015 14:18 13,6 C 14,4 C 49 % 1007,2 hPa 0,0 mm 53,3 km/h (7 Bft) W-SW 247 3,1 C 62,9 km/h (8 Bft)
31.03.2015 14:23 13,6 C 13,9 C 50 % 1007,1 hPa 0,0 mm 51,1 km/h (7 Bft) N-NO 22 3,4 C 86,6 km/h (9 Bft)
31.03.2015 14:28 13,7 C 14,1 C 50 % 1007,1 hPa 0,0 mm 43,7 km/h (6 Bft) NO 45 3,5 C 36,6 km/h (5 Bft)
31.03.2015 14:33 13,6 C 13,8 C 50 % 1007,1 hPa 0,0 mm 42,6 km/h (6 Bft) W-NW 292 3,4 C 64,0 km/h (8 Bft)
31.03.2015 14:38 13,1 C 13,6 C 52 % 1007,1 hPa 0,0 mm 44,0 km/h (6 Bft) NW 315 3,5 C 43,3 km/h (6 Bft)
31.03.2015 14:43 13,0 C 13,2 C 52 % 1006,6 hPa 0,0 mm 46,6 km/h (6 Bft) W-SW 247 3,4 C 68,1 km/h (8 Bft)
31.03.2015 14:48 12,6 C 12,6 C 55 % 1006,6 hPa 0,0 mm 44,8 km/h (6 Bft) NW 315 3,8 C 58,9 km/h (7 Bft)
31.03.2015 14:53 12,4 C 12,4 C 56 % 1006,6 hPa 0,0 mm 44,4 km/h (6 Bft) NW 315 3,9 C 46,3 km/h (6 Bft)
31.03.2015 14:58 12,5 C 12,6 C 56 % 1006,6 hPa 0,0 mm 41,8 km/h (6 Bft) O-SO 112 4,0 C 70,0 km/h (8 Bft)
31.03.2015 15:03 12,4 C 12,5 C 56 % 1006,4 hPa 0,0 mm 43,7 km/h (6 Bft) SW 225 3,9 C 77,4 km/h (9 Bft)
31.03.2015 15:08 12,0 C 12,0 C 57 % 1006,4 hPa 0,0 mm 46,6 km/h (6 Bft) W-SW 247 3,8 C 46,3 km/h (6 Bft)
31.03.2015 15:13 11,9 C 11,7 C 58 % 1006,4 hPa 0,0 mm 44,8 km/h (6 Bft) S 180 3,9 C 42,9 km/h (6 Bft)
31.03.2015 15:18 12,0 C 12,1 C 58 % 1006,4 hPa 0,0 mm 40,0 km/h (6 Bft) W 270 4,0 C 47,7 km/h (6 Bft)
31.03.2015 15:23 12,0 C 12,1 C 58 % 1006,4 hPa 0,0 mm 41,1 km/h (6 Bft) W-NW 292 4,0 C 55,2 km/h (7 Bft)
31.03.2015 15:28 11,9 C 11,9 C 58 % 1006,4 hPa 0,0 mm 41,8 km/h (6 Bft) N 360 3,9 C 45,9 km/h (6 Bft)
31.03.2015 15:33 11,9 C 12,1 C 58 % 1006,4 hPa 0,0 mm 43,3 km/h (6 Bft) W 270 3,9 C 72,5 km/h (8 Bft)
31.03.2015 15:38 11,8 C 11,9 C 58 % 1006,4 hPa 0,0 mm 44,0 km/h (6 Bft) W 270 3,8 C 36,6 km/h (5 Bft)
31.03.2015 15:43 11,9 C 12,1 C 58 % 1006,3 hPa 0,0 mm 44,4 km/h (6 Bft) W-SW 247 3,9 C 44,0 km/h (6 Bft)
31.03.2015 15:48 12,0 C 12,1 C 57 % 1006,3 hPa 0,0 mm 41,8 km/h (6 Bft) W-SW 247 3,8 C 68,1 km/h (8 Bft)
31.03.2015 15:50 12,0 C 11,9 C 57 % 1006,3 hPa 0,0 mm 41,8 km/h (6 Bft) W-SW 247 3,8 C 68,1 km/h (8 Bft)
31.03.2015 15:55 12,0 C 12,0 C 56 % 1006,3 hPa 0,0 mm 48,9 km/h (6 Bft) W-NW 292 3,5 C 131,0 km/h (12 Bft)
31.03.2015 16:00 11,8 C 11,7 C 57 % 1006,3 hPa 0,0 mm 52,2 km/h (7 Bft) W 270 3,6 C 65,5 km/h (8 Bft)
31.03.2015 16:05 11,8 C 11,7 C 57 % 1006,2 hPa 0,0 mm 52,6 km/h (7 Bft) W 270 3,6 C 58,1 km/h (7 Bft)
31.03.2015 16:10 11,9 C 11,8 C 56 % 1006,2 hPa 0,0 mm 48,9 km/h (6 Bft) W-SW 247 3,4 C 47,7 km/h (6 Bft)
31.03.2015 16:15 11,9 C 11,8 C 55 % 1006,2 hPa 0,0 mm 51,1 km/h (7 Bft) N-NO 22 3,2 C 65,5 km/h (8 Bft)
31.03.2015 16:20 11,9 C 11,7 C 55 % 1006,2 hPa 0,0 mm 48,9 km/h (6 Bft) NW 315 3,2 C 38,5 km/h (5 Bft)
31.03.2015 16:25 11,6 C 11,4 C 56 % 1006,4 hPa 0,0 mm 45,5 km/h (6 Bft) W-NW 292 3,1 C 69,2 km/h (8 Bft)
31.03.2015 16:30 11,3 C 11,1 C 57 % 1006,4 hPa 0,0 mm 42,6 km/h (6 Bft) W-NW 292 3,1 C 56,3 km/h (7 Bft)
31.03.2015 16:35 11,2 C 11,1 C 57 % 1006,4 hPa 0,0 mm 40,3 km/h (6 Bft) W-SW 247 3,0 C 52,6 km/h (7 Bft)
31.03.2015 16:40 11,0 C 10,7 C 58 % 1006,4 hPa 0,0 mm 37,0 km/h (5 Bft) SW 225 3,1 C 48,9 km/h (6 Bft)
31.03.2015 16:45 10,3 C 9,9 C 61 % 1007,1 hPa 0,0 mm 37,4 km/h (5 Bft) W 270 3,1 C 32,6 km/h (5 Bft)
31.03.2015 16:50 10,0 C 9,1 C 60 % 1007,1 hPa 0,0 mm 50,7 km/h (7 Bft) W-SW 247 2,6 C 121,7 km/h (12 Bft)
31.03.2015 16:55 10,0 C 8,8 C 60 % 1007,1 hPa 0,0 mm 56,6 km/h (7 Bft) SW 225 2,6 C 48,5 km/h (6 Bft)
31.03.2015 17:00 10,0 C 9,1 C 59 % 1007,1 hPa 0,0 mm 50,3 km/h (7 Bft) W-SW 247 2,4 C 36,3 km/h (5 Bft)
31.03.2015 17:05 10,0 C 9,4 C 59 % 1007,4 hPa 0,0 mm 48,1 km/h (6 Bft) W 270 2,4 C 60,7 km/h (7 Bft)
31.03.2015 17:10 10,0 C 9,6 C 59 % 1007,4 hPa 0,0 mm 39,2 km/h (6 Bft) W 270 2,4 C 48,5 km/h (6 Bft)
31.03.2015 17:15 10,0 C 9,7 C 59 % 1007,4 hPa 0,0 mm 37,0 km/h (5 Bft) W 270 2,4 C 41,8 km/h (6 Bft)
31.03.2015 17:20 9,8 C 9,4 C 59 % 1007,4 hPa 0,0 mm 39,2 km/h (6 Bft) W-SW 247 2,2 C 48,9 km/h (6 Bft)
31.03.2015 17:25 9,7 C 9,2 C 59 % 1007,8 hPa 0,0 mm 42,6 km/h (6 Bft) W-NW 292 2,1 C 74,4 km/h (8 Bft)
31.03.2015 17:30 9,4 C 8,8 C 60 % 1007,8 hPa 0,0 mm 47,4 km/h (6 Bft) W 270 2,0 C 34,4 km/h (5 Bft)
31.03.2015 17:35 9,2 C 8,5 C 60 % 1007,8 hPa 0,0 mm 42,9 km/h (6 Bft) W-NW 292 1,8 C 38,5 km/h (5 Bft)
31.03.2015 17:40 9,0 C 8,4 C 62 % 1007,8 hPa 0,0 mm 38,9 km/h (6 Bft) SW 225 2,1 C 35,9 km/h (5 Bft)
31.03.2015 17:45 8,8 C 7,9 C 63 % 1007,6 hPa 0,0 mm 35,2 km/h (5 Bft) NW 315 2,2 C 57,0 km/h (7 Bft)
31.03.2015 17:50 8,2 C 7,6 C 69 % 1007,6 hPa 0,0 mm 27,8 km/h (4 Bft) W 270 2,9 C 33,7 km/h (5 Bft)
31.03.2015 17:55 7,5 C 6,9 C 74 % 1007,6 hPa 0,0 mm 32,2 km/h (5 Bft) W 270 3,2 C 51,8 km/h (7 Bft)
31.03.2015 18:00 6,9 C 6,1 C 78 % 1007,6 hPa 0,7 mm 36,6 km/h (5 Bft) W 270 3,3 C 68,8 km/h (8 Bft)
31.03.2015 18:05 6,8 C 5,8 C 79 % 1008,2 hPa 0,0 mm 35,9 km/h (5 Bft) NW 315 3,4 C 33,3 km/h (5 Bft)
31.03.2015 18:08 6,6 C 5,7 C 80 % 1008,2 hPa 0,0 mm 30,4 km/h (5 Bft) NW 315 3,4 C 30,4 km/h (5 Bft)
31.03.2015 18:13 6,5 C 5,7 C 81 % 1008,2 hPa 0,0 mm 26,3 km/h (4 Bft) W 270 3,5 C 37,8 km/h (5 Bft)
31.03.2015 18:18 6,4 C 5,6 C 83 % 1008,2 hPa 0,0 mm 28,9 km/h (5 Bft) W-SW 247 3,7 C 32,2 km/h (5 Bft)
31.03.2015 18:23 6,4 C 5,6 C 83 % 1008,7 hPa 0,0 mm 27,8 km/h (4 Bft) W 270 3,7 C 21,1 km/h (4 Bft)
31.03.2015 18:28 6,4 C 5,6 C 83 % 1008,7 hPa 0,0 mm 26,3 km/h (4 Bft) W-SW 247 3,7 C 36,6 km/h (5 Bft)
31.03.2015 18:33 6,4 C 5,6 C 83 % 1008,7 hPa 0,7 mm 27,4 km/h (4 Bft) W-SW 247 3,7 C 36,3 km/h (5 Bft)
31.03.2015 18:38 6,4 C 5,5 C 82 % 1008,7 hPa 0,0 mm 31,8 km/h (5 Bft) N-NW 337 3,6 C 21,1 km/h (4 Bft)
31.03.2015 18:43 6,1 C 5,3 C 83 % 1009,8 hPa 0,7 mm 36,3 km/h (5 Bft) W-SW 247 3,4 C 48,9 km/h (6 Bft)
31.03.2015 18:48 5,4 C 4,7 C 84 % 1009,8 hPa 1,4 mm 36,3 km/h (5 Bft) W 270 2,9 C 47,0 km/h (6 Bft)
31.03.2015 18:53 5,1 C 4,2 C 85 % 1009,8 hPa 0,0 mm 41,1 km/h (6 Bft) W-NW 292 2,8 C 64,4 km/h (8 Bft)
31.03.2015 18:58 4,6 C 3,6 C 85 % 1009,8 hPa 1,4 mm 42,9 km/h (6 Bft) NW 315 2,3 C 84,4 km/h (9 Bft)
31.03.2015 19:03 4,6 C 3,5 C 84 % 1011,0 hPa 0,7 mm 45,2 km/h (6 Bft) W-SW 247 2,1 C 38,1 km/h (5 Bft)
31.03.2015 19:08 4,7 C 3,0 C 85 % 1011,0 hPa 0,0 mm 42,9 km/h (6 Bft) W 270 2,4 C 29,6 km/h (5 Bft)
31.03.2015 19:13 4,8 C 3,6 C 85 % 1011,0 hPa 0,0 mm 36,3 km/h (5 Bft) W-SW 247 2,5 C 24,4 km/h (4 Bft)
31.03.2015 19:18 4,9 C 3,7 C 85 % 1011,0 hPa 0,0 mm 31,8 km/h (5 Bft) W 270 2,6 C 39,6 km/h (6 Bft)
31.03.2015 19:21 4,9 C 3,4 C 85 % 1011,0 hPa 0,0 mm 31,8 km/h (5 Bft) W 270 2,6 C 39,6 km/h (6 Bft)
31.03.2015 19:23 5,0 C 4,0 C 85 % 1010,8 hPa 0,0 mm 26,4 km/h (4 Bft) W 270 2,7 C 26,1 km/h (4 Bft)
31.03.2015 19:26 5,0 C 3,6 C 85 % 1010,8 hPa 0,0 mm 26,4 km/h (4 Bft) W 270 2,7 C 26,1 km/h (4 Bft)
31.03.2015 19:30 5,1 C 4,1 C 84 % 1010,8 hPa 0,0 mm 26,4 km/h (4 Bft) N-NO 22 2,6 C 13,0 km/h (3 Bft)
31.03.2015 19:35 5,3 C 4,3 C 84 % 1010,8 hPa 0,0 mm 26,7 km/h (4 Bft) W-NW 292 2,8 C 20,9 km/h (4 Bft)
31.03.2015 19:40 5,3 C 4,4 C 83 % 1010,8 hPa 0,0 mm 24,3 km/h (4 Bft) W-SW 247 2,7 C 38,8 km/h (5 Bft)
31.03.2015 19:45 5,3 C 4,5 C 83 % 1011,4 hPa 0,0 mm 24,0 km/h (4 Bft) W-SW 247 2,7 C 15,9 km/h (3 Bft)
31.03.2015 19:50 5,3 C 4,5 C 82 % 1011,4 hPa 0,0 mm 28,1 km/h (4 Bft) W 270 2,5 C 36,5 km/h (5 Bft)
31.03.2015 19:55 5,3 C 4,4 C 80 % 1011,4 hPa 0,0 mm 31,1 km/h (5 Bft) W-SW 247 2,1 C 29,0 km/h (5 Bft)
31.03.2015 20:00 5,1 C 4,2 C 79 % 1011,4 hPa 0,0 mm 31,4 km/h (5 Bft) W-SW 247 1,8 C 41,4 km/h (6 Bft)
31.03.2015 20:05 5,2 C 4,3 C 79 % 1011,8 hPa 0,0 mm 26,7 km/h (4 Bft) NW 315 1,9 C 15,6 km/h (3 Bft)
31.03.2015 20:10 5,1 C 4,4 C 80 % 1011,8 hPa 0,0 mm 22,6 km/h (4 Bft) NW 315 1,9 C 44,9 km/h (6 Bft)
31.03.2015 20:15 5,2 C 4,2 C 79 % 1011,8 hPa 0,0 mm 23,0 km/h (4 Bft) W 270 1,9 C 23,2 km/h (4 Bft)
31.03.2015 20:20 5,1 C 4,4 C 79 % 1011,8 hPa 0,0 mm 23,7 km/h (4 Bft) W 270 1,8 C 13,6 km/h (3 Bft)
31.03.2015 20:25 5,0 C 4,4 C 80 % 1011,9 hPa 0,0 mm 20,6 km/h (4 Bft) W-SW 247 1,8 C 32,4 km/h (5 Bft)
31.03.2015 20:30 5,0 C 4,1 C 80 % 1011,9 hPa 0,0 mm 18,9 km/h (3 Bft) W 270 1,8 C 36,2 km/h (5 Bft)
31.03.2015 20:35 5,0 C 4,3 C 79 % 1011,9 hPa 0,0 mm 22,0 km/h (4 Bft) W 270 1,7 C 32,2 km/h (5 Bft)
31.03.2015 20:40 5,1 C 4,4 C 79 % 1011,9 hPa 0,0 mm 25,0 km/h (4 Bft) W-SW 247 1,8 C 39,1 km/h (6 Bft)
31.03.2015 20:45 5,1 C 4,0 C 79 % 1011,9 hPa 0,0 mm 25,0 km/h (4 Bft) W-SW 247 1,8 C 39,1 km/h (6 Bft)
31.03.2015 20:50 5,1 C 4,4 C 79 % 1012,1 hPa 0,0 mm 24,0 km/h (4 Bft) W-NW 292 1,8 C 24,0 km/h (4 Bft)
31.03.2015 20:55 5,1 C 4,5 C 79 % 1012,1 hPa 0,0 mm 17,2 km/h (3 Bft) W-SW 247 1,8 C 15,9 km/h (3 Bft)
31.03.2015 21:00 5,1 C 4,7 C 79 % 1012,1 hPa 0,0 mm 16,6 km/h (3 Bft) NW 315 1,8 C 22,6 km/h (4 Bft)
31.03.2015 21:05 5,1 C 4,7 C 79 % 1012,4 hPa 0,0 mm 17,2 km/h (3 Bft) W-SW 247 1,8 C 13,3 km/h (3 Bft)
31.03.2015 21:10 5,1 C 4,7 C 79 % 1012,4 hPa 0,0 mm 16,6 km/h (3 Bft) W-NW 292 1,8 C 15,6 km/h (3 Bft)
31.03.2015 21:15 5,1 C 4,6 C 79 % 1012,4 hPa 0,0 mm 14,2 km/h (3 Bft) W-SW 247 1,8 C 26,7 km/h (4 Bft)
31.03.2015 21:20 5,1 C 4,6 C 79 % 1012,4 hPa 0,0 mm 14,9 km/h (3 Bft) W-SW 247 1,8 C 16,2 km/h (3 Bft)
31.03.2015 21:25 5,0 C 4,4 C 79 % 1012,3 hPa 0,0 mm 15,9 km/h (3 Bft) W 270 1,7 C 19,7 km/h (3 Bft)
31.03.2015 21:30 5,1 C 4,6 C 78 % 1012,3 hPa 0,0 mm 18,2 km/h (3 Bft) W-SW 247 1,6 C 36,8 km/h (5 Bft)
31.03.2015 21:35 5,0 C 4,5 C 77 % 1012,3 hPa 0,0 mm 20,6 km/h (4 Bft) W 270 1,3 C 24,6 km/h (4 Bft)
31.03.2015 21:40 5,0 C 4,4 C 76 % 1012,3 hPa 0,0 mm 21,6 km/h (4 Bft) W-SW 247 1,1 C 39,7 km/h (6 Bft)
31.03.2015 21:45 4,8 C 4,2 C 76 % 1012,4 hPa 0,0 mm 20,6 km/h (4 Bft) W 270 0,9 C 21,1 km/h (4 Bft)
31.03.2015 21:50 4,7 C 4,1 C 76 % 1012,4 hPa 0,0 mm 18,6 km/h (3 Bft) W 270 0,8 C 18,5 km/h (3 Bft)
31.03.2015 21:55 4,7 C 4,1 C 76 % 1012,4 hPa 0,0 mm 19,6 km/h (3 Bft) W-SW 247 0,8 C 19,1 km/h (3 Bft)
31.03.2015 22:00 4,8 C 4,1 C 76 % 1012,4 hPa 0,0 mm 22,3 km/h (4 Bft) W-NW 292 0,9 C 24,6 km/h (4 Bft)
31.03.2015 22:05 4,8 C 4,2 C 76 % 1012,6 hPa 0,0 mm 18,9 km/h (3 Bft) W-NW 292 0,9 C 20,9 km/h (4 Bft)
31.03.2015 22:10 5,0 C 4,4 C 72 % 1012,6 hPa 0,0 mm 19,9 km/h (4 Bft) SW 225 0,4 C 29,0 km/h (5 Bft)
31.03.2015 22:15 5,1 C 4,4 C 71 % 1012,6 hPa 0,0 mm 24,0 km/h (4 Bft) W-NW 292 0,3 C 16,5 km/h (3 Bft)
31.03.2015 22:20 5,1 C 4,5 C 70 % 1012,6 hPa 0,0 mm 24,3 km/h (4 Bft) W-NW 292 0,1 C 22,9 km/h (4 Bft)
31.03.2015 22:25 5,1 C 4,5 C 69 % 1012,6 hPa 0,0 mm 23,3 km/h (4 Bft) W-SW 247 -0,1 C 22,0 km/h (4 Bft)
31.03.2015 22:30 5,0 C 4,2 C 69 % 1012,6 hPa 0,0 mm 22,0 km/h (4 Bft) NW 315 -0,2 C 30,7 km/h (5 Bft)
31.03.2015 22:35 4,2 C 3,8 C 72 % 1012,6 hPa 0,0 mm 21,3 km/h (4 Bft) NW 315 -0,4 C 16,8 km/h (3 Bft)
31.03.2015 22:40 3,9 C 3,4 C 73 % 1012,6 hPa 0,0 mm 17,9 km/h (3 Bft) W 270 -0,5 C 9,8 km/h (2 Bft)
31.03.2015 22:45 3,7 C 3,3 C 74 % 1012,9 hPa 0,0 mm 10,1 km/h (2 Bft) W 270 -0,5 C 6,7 km/h (2 Bft)
31.03.2015 22:50 3,8 C 3,5 C 74 % 1012,9 hPa 0,0 mm 8,1 km/h (2 Bft) NW 315 -0,4 C 8,4 km/h (2 Bft)
31.03.2015 22:55 3,9 C 3,6 C 75 % 1012,9 hPa 0,0 mm 7,4 km/h (2 Bft) NW 315 -0,1 C 15,4 km/h (3 Bft)
31.03.2015 23:00 3,8 C 3,7 C 75 % 1012,9 hPa 0,0 mm 6,4 km/h (2 Bft) NW 315 -0,2 C 0,0 km/h (0 Bft)
31.03.2015 23:05 4,5 C 3,9 C 74 % 1012,4 hPa 0,0 mm 10,1 km/h (2 Bft) NW 315 0,3 C 22,9 km/h (4 Bft)
31.03.2015 23:10 4,8 C 4,1 C 72 % 1012,4 hPa 0,0 mm 15,5 km/h (3 Bft) W 270 0,2 C 42,6 km/h (6 Bft)
31.03.2015 23:15 5,2 C 4,6 C 69 % 1012,4 hPa 0,0 mm 23,3 km/h (4 Bft) W-SW 247 -0,0 C 19,7 km/h (3 Bft)
31.03.2015 23:20 5,4 C 4,7 C 68 % 1012,4 hPa 0,0 mm 31,8 km/h (5 Bft) NW 315 -0,0 C 44,6 km/h (6 Bft)
31.03.2015 23:25 3,3 C 2,8 C 70 % 1013,5 hPa 0,0 mm 36,5 km/h (5 Bft) NO 45 -1,6 C 25,2 km/h (4 Bft)
31.03.2015 23:30 2,9 C 2,0 C 72 % 1013,5 hPa 0,0 mm 36,8 km/h (5 Bft) W 270 -1,6 C 34,2 km/h (5 Bft)
31.03.2015 23:35 3,0 C 1,9 C 71 % 1013,5 hPa 0,0 mm 25,7 km/h (4 Bft) W 270 -1,7 C 15,1 km/h (3 Bft)
31.03.2015 23:40 2,9 C 1,9 C 73 % 1013,5 hPa 0,0 mm 19,3 km/h (3 Bft) W 270 -1,5 C 19,7 km/h (3 Bft)
31.03.2015 23:45 3,0 C 2,0 C 74 % 1012,8 hPa 0,0 mm 15,5 km/h (3 Bft) W 270 -1,2 C 13,9 km/h (3 Bft)
31.03.2015 23:50 2,9 C 2,0 C 75 % 1012,8 hPa 0,0 mm 14,9 km/h (3 Bft) NW 315 -1,1 C 17,7 km/h (3 Bft)
31.03.2015 23:55 3,0 C 2,1 C 75 % 1012,8 hPa 0,0 mm 13,5 km/h (3 Bft) SW 225 -1,0 C 20,6 km/h (4 Bft)
_ Min-Zeit 23:50 23:40 11:33 09:58 - 03:20 - - 23:35 23:00
Minimum _ 2,9 C 1,9 C 42 % 1003,4 hPa - 0,5 km/h (0 Bft) - - -1,7 C 0,0 km/h (0 Bft)
_ Max-Zeit 11:23 11:23 19:26 00:00 18:58 12:08 - - 06:50 10:48
Maximum _ 16,1 C 18,9 C 85 % 1014,2 hPa 1,4 mm 61,8 km/h
SW (7 Bft)
- - 5,2 C 132,5 km/h
W (12 Bft)
Durchschnitt _ 9,1 C 8,9 C 65 % 1008,4 hPa #6,2 mm 27,8 km/h (4 Bft) W - 2,5 C 37,0 km/h (5 Bft)